Weather Roundup
Issued by NWS Chicago, IL

Home | Current Version | Previous Version | Graphics & Text | Print | Product List | Glossary On
Versions: 1 2 3 4 5 6 7 8 9 10 11 12 13 14 15 16 17 18 19 20 21 22 23 24 25 26 27 28 29 30 31 32 33 34 35 36 37 38 39 40 41 42 43 44 45 46 47 48 49 50
000
NZUS59 KLOT 252110
HRRLOT

CHICAGO AREA WEATHER ROUNDUP
NATIONAL WEATHER SERVICE CHICAGO/ROMEOVILLE IL
400 PM CDT FRI JUL 25 2014

NOTE: "FAIR" INDICATES FEW OR NO CLOUDS BELOW 12,000 FEET WITH NO
SIGNIFICANT WEATHER AND/OR OBSTRUCTIONS TO VISIBILITY.

* THESE STATIONS ARE NOT UNDER NWS QUALITY CONTROL. THEY ALSO MAY NOT
  REPORT WEATHER SUCH AS PRECIPITATION OR FOG.

ILZ005-006-012>014-019>023-252200-
NORTHEAST ILLINOIS

CITY           SKY/WX    TMP DP  RH WIND       PRES   REMARKS
OHARE          CLOUDY    74  56  53 SW13      29.94F
MIDWAY         PTSUNNY   74  59  59 SW13      29.95F
AURORA         CLOUDY    71  59  65 S8        29.96F
LANSING*       CLOUDY    72  56  58 SW12      29.97F
JOLIET*        CLOUDY    71  58  63 SW5       29.97S
WAUKEGAN       CLOUDY    73  57  57 SW13G18   29.93F
DUPAGE AIRPORT CLOUDY    71  60  68 SW9       29.96F
WHEELING       PTSUNNY   75  57  53 SW10G22   29.95F
KANKAKEE*      CLOUDY    73  61  67 SW7       29.97R
MORRIS*        CLOUDY    73  59  62 SW12      29.95F
LEWIS AIRPORT* CLOUDY    71  59  65 W8        29.96F
NORTHERLY IS     N/A     72  56  57 W8          N/A
$$

WIZ051-052-058>065-066-070>072-252200-
SOUTHEAST WISCONSIN

CITY           SKY/WX    TMP DP  RH WIND       PRES   REMARKS
MILWAUKEE      CLOUDY    70  56  61 SW7       29.94F
KENOSHA*       CLOUDY    73  59  61 SW10      29.95S
RACINE*        CLOUDY    72  56  57 SW7       29.96S
BURLINGTON     CLOUDY    69  59  71 S9        29.94S
WAUKESHA       MOSUNNY   70  57  64 S8        29.95R
WEST BEND      PTSUNNY   72  57  60 S13       29.94F
$$

INZ001>003-010>013-019-020-252200-
NORTHWEST INDIANA

CITY           SKY/WX    TMP DP  RH WIND       PRES   REMARKS
GARY*          CLOUDY    73  57  56 S12       29.97F
MICHIGAN CITY* NOT AVBL
RENSSELAER*    NOT AVBL
VALPARAISO     CLOUDY    71  56  58 SW14      29.98R
$$

LMZ740>746-252200-
SOUTHERN LAKE MICHIGAN

STATION/POSITION TIME  SKY/WX   TEMP WIND        PRES    VSBY
                                AIR  DIR/SP/G
                 (UTC)          (F)  (DEG/KT/KT) (MB)    (MI)
HARRISON CRIB    2100            71  200/ 13/ 18   N/A
BURNHAM HARBOR   2100            73  190/  3/ 14   N/A
CALUMET HARBOR   2100            72  200/  7/ 13 1013.4S
BURNS HARBOR     2000            73  190/ 13/ 24 1014.9F
MICHIGAN CITY    2100            71  200/ 12/ 16   N/A
$$

ABBREVIATIONS USED IN REMARKS
   TC - TEMPERATURE IN CELSIUS
  WCI - WIND CHILL INDEX
   HX - HEAT INDEX
  VSB - VISIBILITY
$$



USA.gov is the U.S. government's official web portal to all federal, state and local government web resources and services.